Bellefontaine, OH

1:55 PM EDT on June 23, 2017 (GMT -0400)
Bellefontaine

Weather History for KEDJ - March, 2013

Change the Weather History Date:

Monday, March 25, 2013

  Actual Average (KDLZ) Record (KDLZ)
Temperature  
Mean Temperature 31 °F -  
Max Temperature 32 °F 49 °F 82 °F (1945)
Min Temperature 30 °F 29 °F 1 °F (1974)
Degree Days  
Heating Degree Days 34    
Moisture  
Dew Point 31 °F    
Average Humidity 100    
Maximum Humidity 100    
Minimum Humidity 100    
Precipitation  
Precipitation 0.69 in - - ()
Sea Level Pressure  
Sea Level Pressure 29.55 in    
Wind  
Wind Speed 11 mph (NNW)    
Max Wind Speed 22 mph    
Max Gust Speed 28 mph    
Visibility 2 miles    
Events      
Averages and records for this station are not official NWS values.
T = Trace of Precipitation, MM = Missing Value Source: NWS Daily Summary

Daily Weather History Graph

Daily Weather History Graph

Search for Another Location

Airport or City:

Trip Planner

Search our weather history database for the weather conditions in past years. The results will help you decide how hot, cold, wet, or windy it might be!

Date:

Astronomy

Mar. 25, 2013 Rise Set
Actual Time 7:30 AM EDT 7:52 PM EDT
Civil Twilight 7:02 AM EDT 8:20 PM EDT
Nautical Twilight 6:30 AM EDT 8:52 PM EDT
Astronomical Twilight 5:58 AM EDT 9:25 PM EDT
Moon 6:23 PM EDT (3/25) 6:13 AM EDT (3/25)
Length of Visible Light 13h 17m
Length of Day
12h 22m
Waxing Gibbous, 96% of the Moon is Illuminated
Mar 25
Waxing Gibbous
Mar 27
Full
Apr 3
Last Quarter
Apr 10
New
Apr 18
First Quarter

Hourly Weather History & Observations

Time (EDT) Temp. Windchill Dew Point Humidity Pressure Visibility Wind Dir Wind Speed Gust Speed Precip Events Conditions
12:10 AM 30.2 °F 22.6 °F 30.2 °F 100% 29.43 in 1.0 mi NNE 8.1 mph - 0.00 in   Overcast
12:30 AM 30.2 °F 21.9 °F 30.2 °F 100% 29.42 in 1.0 mi NE 9.2 mph - 0.01 in   Overcast
12:50 AM 30.2 °F 22.6 °F 30.2 °F 100% 29.42 in 0.5 mi NNE 8.1 mph - 0.02 in   Overcast
1:10 AM 30.2 °F 21.9 °F 30.2 °F 100% 29.41 in 0.5 mi NNE 9.2 mph - 0.00 in   Overcast
1:30 AM 30.2 °F 21.9 °F 30.2 °F 100% 29.41 in 0.5 mi NNE 9.2 mph - 0.02 in   Overcast
1:50 AM 30.2 °F 21.3 °F 30.2 °F 100% 29.41 in 0.5 mi NNE 10.4 mph - 0.05 in   Overcast
2:10 AM 30.2 °F 21.3 °F 30.2 °F 100% 29.40 in 1.0 mi NNE 10.4 mph - 0.01 in   Overcast
2:30 AM 30.2 °F 21.3 °F 30.2 °F 100% 29.40 in 1.0 mi NNE 10.4 mph - 0.03 in   Mostly Cloudy
2:50 AM 30.2 °F 20.2 °F 30.2 °F 100% 29.40 in 0.8 mi NNE 12.7 mph - 0.04 in   Mostly Cloudy
3:10 AM 30.2 °F 20.8 °F 30.2 °F 100% 29.39 in 1.0 mi NNE 11.5 mph - 0.00 in   Unknown
3:30 AM 30.2 °F 20.8 °F 30.2 °F 100% 29.39 in 0.8 mi NNE 11.5 mph - 0.01 in   Mostly Cloudy
3:50 AM 30.2 °F 21.3 °F 30.2 °F 100% 29.39 in 1.0 mi North 10.4 mph - 0.01 in   Clear
4:10 AM 30.2 °F 21.9 °F 30.2 °F 100% 29.38 in 1.2 mi North 9.2 mph - 0.00 in   Clear
4:30 AM 30.2 °F 21.9 °F 30.2 °F 100% 29.37 in 1.8 mi North 9.2 mph - 0.00 in   Mostly Cloudy
4:50 AM 30.2 °F 21.9 °F 30.2 °F 100% 29.37 in 2.5 mi NNE 9.2 mph - 0.00 in   Mostly Cloudy
5:10 AM 30.2 °F 22.6 °F 30.2 °F 100% 29.37 in 2.0 mi NNE 8.1 mph - 0.00 in   Overcast
5:30 AM 30.2 °F 22.6 °F 30.2 °F 100% 29.37 in 2.0 mi NNE 8.1 mph - 0.01 in   Overcast
5:50 AM 30.2 °F 23.4 °F 30.2 °F 100% 29.37 in 2.0 mi North 6.9 mph - 0.01 in   Overcast
6:10 AM 30.2 °F 23.4 °F 30.2 °F 100% 29.38 in 1.5 mi North 6.9 mph - 0.00 in   Overcast
6:30 AM 30.2 °F 23.4 °F 30.2 °F 100% 29.38 in 1.5 mi North 6.9 mph - 0.01 in   Overcast
6:50 AM 30.2 °F 23.4 °F 30.2 °F 100% 29.38 in 1.8 mi North 6.9 mph - 0.01 in   Overcast
7:10 AM 30.2 °F 24.3 °F 30.2 °F 100% 29.39 in 2.0 mi North 5.8 mph - 0.00 in   Overcast
7:30 AM 30.2 °F 23.4 °F 30.2 °F 100% 29.40 in 1.0 mi North 6.9 mph - 0.00 in   Overcast
7:50 AM 30.2 °F 24.3 °F 30.2 °F 100% 29.40 in 1.2 mi North 5.8 mph - 0.00 in   Overcast
8:10 AM 30.2 °F 23.4 °F 30.2 °F 100% 29.41 in 1.2 mi North 6.9 mph - 0.01 in   Overcast
8:30 AM 30.2 °F 23.4 °F 30.2 °F 100% 29.42 in 1.0 mi NNW 6.9 mph - 0.01 in   Mostly Cloudy
8:50 AM 32.0 °F 24.8 °F 32.0 °F 100% 29.42 in 1.5 mi NNW 8.1 mph - 0.01 in   Scattered Clouds
9:10 AM 32.0 °F 23.6 °F 32.0 °F 100% 29.43 in 1.8 mi NNW 10.4 mph - 0.00 in   Overcast
9:30 AM 32.0 °F 23.0 °F 32.0 °F 100% 29.43 in 2.5 mi NNW 11.5 mph - 0.00 in   Overcast
9:50 AM 32.0 °F 22.5 °F 32.0 °F 100% 29.44 in 3.0 mi NNW 12.7 mph - 0.00 in   Overcast
10:10 AM 32.0 °F 22.5 °F 32.0 °F 100% 29.45 in 2.5 mi North 12.7 mph - 0.00 in   Overcast
10:30 AM 32.0 °F 21.6 °F 32.0 °F 100% 29.45 in 1.8 mi NNW 15.0 mph - 0.00 in   Overcast
10:50 AM 32.0 °F 22.1 °F 32.0 °F 100% 29.46 in 1.5 mi North 13.8 mph - 0.00 in   Overcast
11:10 AM 32.0 °F 23.0 °F 32.0 °F 100% 29.47 in 1.5 mi North 11.5 mph - 0.00 in   Overcast
11:30 AM 32.0 °F 22.5 °F 32.0 °F 100% 29.48 in 1.5 mi North 12.7 mph - 0.00 in   Overcast
11:50 AM 32.0 °F 22.1 °F 32.0 °F 100% 29.49 in 2.5 mi North 13.8 mph - 0.00 in   Overcast
12:10 PM 32.0 °F 21.6 °F 32.0 °F 100% 29.50 in 3.0 mi North 15.0 mph - 0.00 in   Overcast
12:30 PM 32.0 °F 21.2 °F 32.0 °F 100% 29.52 in 5.0 mi North 16.1 mph - 0.00 in   Overcast
12:50 PM 32.0 °F 21.2 °F 32.0 °F 100% 29.53 in 5.0 mi North 16.1 mph - 0.00 in   Overcast
1:10 PM 32.0 °F 21.6 °F 32.0 °F 100% 29.54 in 2.5 mi North 15.0 mph - 0.00 in   Overcast
1:30 PM 32.0 °F 21.2 °F 32.0 °F 100% 29.55 in 2.0 mi NNW 16.1 mph - 0.00 in   Overcast
1:50 PM 32.0 °F 20.1 °F 32.0 °F 100% 29.56 in 1.8 mi North 19.6 mph 24.2 mph 0.00 in   Overcast
2:10 PM 32.0 °F 20.1 °F 32.0 °F 100% 29.57 in 4.0 mi North 19.6 mph 24.2 mph 0.00 in   Mostly Cloudy
2:30 PM 32.0 °F 20.1 °F 32.0 °F 100% 29.58 in 5.0 mi NNW 19.6 mph 26.5 mph 0.00 in   Overcast
2:50 PM 32.0 °F 19.5 °F 32.0 °F 100% 29.58 in 4.0 mi NNW 21.9 mph 25.3 mph 0.00 in   Overcast
3:10 PM 32.0 °F 20.1 °F 32.0 °F 100% 29.60 in 4.0 mi North 19.6 mph - 0.00 in   Overcast
3:30 PM 32.0 °F 19.5 °F 32.0 °F 100% 29.61 in 4.0 mi NNW 21.9 mph - 0.00 in   Overcast
3:50 PM 32.0 °F 20.1 °F 32.0 °F 100% 29.62 in 3.0 mi NNW 19.6 mph 24.2 mph 0.00 in   Overcast
4:10 PM 32.0 °F 19.5 °F 32.0 °F 100% 29.63 in 2.5 mi NNW 21.9 mph - 0.00 in   Overcast
4:30 PM 32.0 °F 20.1 °F 32.0 °F 100% 29.64 in 1.0 mi NNW 19.6 mph 25.3 mph 0.00 in   Overcast
4:50 PM 32.0 °F 19.5 °F 32.0 °F 100% 29.65 in 1.8 mi NNW 21.9 mph 25.3 mph 0.00 in   Overcast
5:10 PM 32.0 °F 19.5 °F 32.0 °F 100% 29.67 in 3.0 mi NNW 21.9 mph 26.5 mph 0.00 in   Overcast
5:30 PM 32.0 °F 20.5 °F 32.0 °F 100% 29.68 in 1.2 mi NNW 18.4 mph 25.3 mph 0.56 in   Overcast
5:50 PM 32.0 °F 20.8 °F 32.0 °F 100% 29.68 in 0.8 mi NNW 17.3 mph 23.0 mph 0.56 in   Overcast
6:10 PM 32.0 °F 19.8 °F 32.0 °F 100% 29.70 in 2.5 mi NNW 20.7 mph 27.6 mph 0.00 in   Scattered Clouds
6:25 PM 32.0 °F 21.2 °F 32.0 °F 100% 29.71 in 2.5 mi NNW 16.1 mph 19.6 mph 0.00 in   Scattered Clouds
6:50 PM 32.0 °F 21.6 °F 32.0 °F 100% 29.73 in 1.5 mi NNW 15.0 mph 20.7 mph 0.00 in   Unknown
7:10 PM 32.0 °F 22.5 °F 32.0 °F 100% 29.74 in 1.2 mi NNW 12.7 mph 16.1 mph 0.00 in   Mostly Cloudy
7:30 PM 32.0 °F 24.8 °F 32.0 °F 100% 29.76 in 1.5 mi NW 8.1 mph - 0.00 in   Mostly Cloudy
7:50 PM 32.0 °F 24.8 °F 32.0 °F 100% 29.77 in 1.8 mi NW 8.1 mph - 0.00 in   Overcast
8:10 PM 32.0 °F 23.0 °F 32.0 °F 100% 29.78 in 1.8 mi NW 11.5 mph 17.3 mph 0.00 in   Overcast
8:30 PM 32.0 °F 23.6 °F 32.0 °F 100% 29.79 in 2.0 mi NW 10.4 mph - 0.00 in   Mostly Cloudy
8:50 PM 32.0 °F 23.6 °F 32.0 °F 100% 29.80 in 1.2 mi NW 10.4 mph 16.1 mph 0.00 in   Mostly Cloudy
9:10 PM 32.0 °F 24.2 °F 32.0 °F 100% 29.81 in 2.0 mi WNW 9.2 mph 17.3 mph 0.00 in   Overcast
9:30 PM 32.0 °F 23.0 °F 32.0 °F 100% 29.82 in 2.5 mi WNW 11.5 mph 18.4 mph 0.00 in   Mostly Cloudy
9:50 PM 32.0 °F 23.6 °F 32.0 °F 100% 29.83 in 3.0 mi NW 10.4 mph - 0.00 in   Overcast
10:10 PM 32.0 °F 23.6 °F 32.0 °F 100% 29.83 in 4.0 mi NW 10.4 mph 17.3 mph 0.00 in   Overcast
10:30 PM 32.0 °F 24.2 °F 32.0 °F 100% 29.84 in 3.0 mi NW 9.2 mph - 0.00 in   Overcast
10:50 PM 32.0 °F 24.2 °F 32.0 °F 100% 29.85 in 2.5 mi NW 9.2 mph 17.3 mph 0.00 in   Overcast
11:10 PM 32.0 °F 23.6 °F 32.0 °F 100% 29.85 in 6.0 mi NW 10.4 mph - 0.00 in   Overcast
11:30 PM 32.0 °F 24.2 °F 32.0 °F 100% 29.86 in 5.0 mi NW 9.2 mph - 0.00 in   Overcast
11:50 PM 32.0 °F 23.6 °F 32.0 °F 100% 29.86 in 4.0 mi NW 10.4 mph - 0.00 in   Overcast